Weather Roundup
Issued by NWS

Home | Current Version | Previous Version | Graphics & Text | Print | Product List | Glossary Off
Versions: 1 2 3 4 5 6 7 8 9 10 11 12 13 14 15 16 17 18 19 20 21 22 23 24 25 26 27 28 29 30 31 32 33 34 35 36 37 38 39 40 41 42 43 44 45 46 47 48 49 50

000
NZUS93 KARX 281310
HRRWXR

CURRENT HOURLY OBSERVATIONS ACROSS
MUCH OF THE UPPER MISSISSIPPI VALLEY
NATIONAL WEATHER SERVICE LA CROSSE WI
800 AM CDT SUN MAY 28 2017


...SOUTHEAST MINNESOTA...


CITY           SKY/WX    TMP DP  RH WIND       PRES   REMARKS
ROCHESTER      SUNNY     61  52  72 W14       29.78S
ROCHESTER/MAYO FAIR      60  50  70 W10G18    29.77S
WINONA         SUNNY     61  52  72 SW6       29.75S
AUSTIN         SUNNY     61  52  72 W10       29.78S
ALBERT LEA     SUNNY     63  52  67 W10G16    29.79S
DODGE CENTER   SUNNY     61  50  67 W12       29.77R
PRESTON        SUNNY     60  51  71 W9        29.79R
OWATONNA       SUNNY     61  50  67 W10       29.78R
FARIBAULT      SUNNY     61  50  67 W12G17    29.77R
$$

...ELSEWHERE IN MINNESOTA...


CITY           SKY/WX    TMP DP  RH WIND       PRES   REMARKS
MINNEAPOLIS    MOSUNNY   61  48  62 W12       29.73R
INTNL FALLS    CLOUDY    55  47  74 SW6       29.63S
DULUTH         CLOUDY    55  50  83 W10       29.66R
RED WING       MOSUNNY   63  48  59 W10       29.72S
REDWOOD FALLS  SUNNY     58  46  64 NW12      29.81R
MANKATO        SUNNY     58  47  66 NW12      29.80R
WORTHINGTON    SUNNY     58  47  66 NW9       29.85S
FAIRMONT       SUNNY     60  47  61 NW15      29.82R
$$

...SOUTHWEST WISCONSIN...


CITY           SKY/WX    TMP DP  RH WIND       PRES   REMARKS
LA CROSSE      SUNNY     63  57  81 SE8       29.76S
PRAIRIE DU CHI MOSUNNY   61  57  86 CALM      29.79S
BOSCOBEL       CLOUDY    61  57  87 CALM      29.79S
LONE ROCK      CLOUDY    60  56  86 W3        29.78S
PLATTEVILLE    PTSUNNY   60  58  96 CALM      29.80S
FORT MC COY    SUNNY     59  56  89 CALM      29.77F
CAMP DOUGLAS   CLOUDY    58  55  92 CALM      29.76F
MAUSTON-NEW LI CLOUDY    58  55  90 CALM      29.77F
VIROQUA        FAIR      59  53  78 SW5       29.78S
WIS DELLS      CLOUDY    57  55  92 CALM      29.78S
$$

...ELSEWHERE IN WISCONSIN...


CITY           SKY/WX    TMP DP  RH WIND       PRES   REMARKS
MILWAUKEE      LGT RAIN  62  56  80 NW3       29.76R
MADISON        CLOUDY    57  55  93 E5        29.77S
GREEN BAY      HVY RAIN  58  57  97 SW6       29.77R FOG
EAU CLAIRE     SUNNY     61  52  72 S8        29.71F
BLACK RVR FLS  FAIR      58  58 100 CALM      29.76S
MEDFORD        MOSUNNY   56  51  84 SE5       29.74S
WAUSAU         PTSUNNY   57  53  86 CALM      29.75F
WIS RAPIDS     CLOUDY    58  56  93 S6        29.78F
MARSHFIELD     MOSUNNY   58  53  84 S5        29.75F
RICE LAKE      PTSUNNY   59  49  70 CALM      29.72R
$$

...NORTHEAST IOWA...


CITY           SKY/WX    TMP DP  RH WIND       PRES   REMARKS
WATERLOO       SUNNY     61  54  77 W8        29.80S
DUBUQUE        CLOUDY    61  54  77 NW5       29.80R
DECORAH        SUNNY     61  54  77 CALM      29.78S
MASON CITY     SUNNY     60  51  72 W16       29.83R
CHARLES CITY   SUNNY     61  57  88 W12       29.81R
OELWEIN        SUNNY     61  57  88 W8        29.81S
$$

...ELSEWHERE IN IOWA...


CITY           SKY/WX    TMP DP  RH WIND       PRES   REMARKS
DES MOINES     MOSUNNY   62  54  74 W6        29.85R
IOWA CITY      MOSUNNY   62  56  80 NW7       29.83R
FORT DODGE     SUNNY     57  54  88 W5        29.86R
MARSHALLTOWN   SUNNY     60  56  86 W5        29.82S
CEDAR RAPIDS   CLOUDY    57  56  96 NW6       29.81R
$$

...NORTHERN ILLINOIS...


CITY           SKY/WX    TMP DP  RH WIND       PRES   REMARKS
CHICAGO-OHARE  CLOUDY    65  57  75 CALM      29.74R
CHICAGO-MIDWAY PTSUNNY   66  60  81 S6        29.73S
MOLINE         PTSUNNY   65  57  75 NW8       29.79R
ROCKFORD       TSTM      60  58  92 N10       29.78R
PEORIA         CLOUDY    67  64  90 NW8       29.77R
$$

NOTE: "FAIR" INDICATES FEW OR NO CLOUDS BELOW 12,000 FEET WITH NO
SIGNIFICANT WEATHER AND/OR OBSTRUCTIONS TO VISIBILITY. WIND
SPEEDS ARE IN MILES-PER-HOUR.




USA.gov is the U.S. government's official web portal to all federal, state and local government web resources and services.